AEROCUBE 8D (41852 NORAD) Tracking and Keplerian Element Data

This shows tracking and keplerian element data for the satellite.

Feedback or suggestion? Click here.




ElementValue
Catalog41852
NameAEROCUBE 8D
Epoch Orbit18485
Epoch Day91.87563523
Epoch Year2020
RAAN197.895
Inclination97.9195
Eccentricity0.0010319
Argument of Perigee143.5903
Mean Anonmoly216.6022
Mean Motion14.96865644
Decay Rate-1.87E-06
L11 41852U 16067E 20091.87563523 -.00000187 00000-0 -11002-4 0 9997
L22 41852 97.9195 197.8950 0010319 143.5903 216.6022 14.96865644184858

Live tracking and technical data element details for AEROCUBE 8D (NORAD 41852). AEROCUBE 8D can be tracked NOW for your location showing map with azimuth and elevation plus other details from your city location.

Track the satellite on the map from your city or location and see movement details for azimuth, elevation, latitude, longitude, range, height, and movement on the map or in text.







IsCatalogInMostPopularTable: catalog: 41852, numindb: 330
Update: records affected: 1



GetName: 41852 AEROCUBE 8D

Hit Count: updated at: Fri, 03 Apr 2020 08:00:39 GMT